Simultaneous Nadir Overpasses (SNOs) Predictions

Prediction of SNOs between NPP and TERRA Satellite Orbit:

Table of predicted SNOs for the next 14.0 days since TLE Epoch: 5/28/2017
Index Date (NPP) Time (NPP) Lat,Lon (NPP) SZA (NPP ) Date (TERRA) Time (TERRA) Lat,Lon (TERRA) SZA (TERRA ) Distance(km) Time Diff (sec)
1 05/29/2017 10:39:11 -68.85,-161.80 132.94 05/29/2017 10:40:21 -68.73,-160.85 133.07 40.32 70
2 05/29/2017 11:29:47 68.28, 6.26 46.48 05/29/2017 11:29:54 68.29, 6.25 46.49 0.94 7
3 05/29/2017 12:20:28 -68.16, 173.73 133.65 05/29/2017 12:19:24 -68.18, 173.76 133.63 3.06 64
4 06/01/2017 02:55:58 -68.41, -45.45 133.77 06/01/2017 02:56:58 -68.40, -45.39 133.79 2.82 60
5 06/01/2017 03:46:41 68.22, 122.11 46.04 06/01/2017 03:46:26 68.23, 122.05 46.04 2.54 15
6 06/01/2017 04:37:14 -67.66, -69.88 134.53 06/01/2017 04:36:03 -67.74, -70.89 134.45 43.25 71
7 06/03/2017 19:12:51 -68.35, 70.40 134.17 06/03/2017 19:13:30 -68.33, 70.40 134.19 1.97 39
8 06/03/2017 20:03:35 68.21,-122.11 45.69 06/03/2017 20:02:57 68.22,-122.09 45.70 0.88 38
9 06/06/2017 10:39:15 69.01, 17.97 46.22 06/06/2017 10:40:24 68.92, 19.35 46.11 55.99 69
10 06/06/2017 11:29:45 -68.29,-173.75 134.52 06/06/2017 11:30:03 -68.32,-173.75 134.49 3.04 18
11 06/06/2017 12:20:29 68.16, -6.27 45.35 06/06/2017 12:19:31 68.15, -6.31 45.33 2.27 58
12 06/09/2017 02:55:58 68.37, 134.61 45.32 06/09/2017 02:57:07 68.39, 134.57 45.35 3.28 69
13 06/09/2017 03:46:40 -68.29, -57.97 134.76 06/09/2017 03:46:37 -68.30, -57.91 134.75 2.81 3
14 06/09/2017 04:37:20 67.94, 109.77 44.89 06/09/2017 04:36:07 68.01, 109.39 44.96 17.75 73
15 06/11/2017 19:12:53 68.37,-109.62 45.13 06/11/2017 19:13:42 68.37,-109.61 45.12 0.77 49
16 06/11/2017 20:03:34 -68.24, 57.87 135.01 06/11/2017 20:03:13 -68.22, 57.85 135.03 1.81 21
17 06/11/2017 20:54:02 67.24,-133.61 43.99 06/11/2017 20:52:54 67.32,-135.54 44.08 83.62 68




NCC Satellite Simultaneous Nadir Overpasses (SNOs) Prediction Service
